カタログに戻る

STARLINK-30365

運用中通信VLEO
NORAD 57734·PAYLOAD·🇺🇸 United States

打ち上げ Sep 1, 2023 から Cape Canaveral Space Force Station

Loading…

次のパス (今後24時間)

TLE

最新Source: CelesTrak SupGP

元期: Sep 14, 2026, 22:12 UTC

1 57734C 23131C   26257.92548611 -.00018190  00000+0 -65889-3 0  2570
2 57734  43.0017 183.8274 0001236 260.7272 198.4980 15.27585895    19

AllMySatでSTARLINK-30365をリアルタイム追跡

Download on the App Store